Flag for U.S.A. Weather past 2 weeks in Germantown, Maryland, U.S.A.

Now
70 °F

Sunny.


Feels Like: 70 °F
Forecast: 42 / 68 °F
Wind: 14 mph from Southwest

Location: Frederick Municipal Airport

Current Time: Oct 25, 2014 at 3:47:55 PM

Latest Report: Oct 25, 2014 at 2:50 PM


Visibility: 10 mi

Pressure: 29.83 "Hg

Humidity: 33%

Dew point: 39 °F

Location of GermantownLocation

Historic Weather in Germantown — Graph

°F

Germantown temperature yesterday

Maximum temperature yesterday: 72 °F (at 1:45 PM)
Minimum temperature yesterday: 54 °F (at 11:15 PM)
Average temperature yesterday: 59 °F

Past Weeks' High & Low Weather Summary

 TemperatureHumidityPressure
High81 °F (Oct 14, 12:48 PM)100% (Oct 11, 3:00 AM)30.33 "Hg (Oct 11, 3:00 AM)
Low39 °F (Oct 20, 3:20 AM)20% (Oct 24, 5:55 PM)29.64 "Hg (Oct 18, 4:55 AM)
Average59 °F75%29.98 "Hg
* Reported Oct 10 2:45 PM — Oct 25 2:50 PM, Germantown, Weather by CustomWeather, © 2014

Note: Actual official high and low records may vary slightly from our data, if they occured in-between our weather recording intervals... More about our weather records

Advertising

Germantown weather history for previous 24 hours

 ConditionsComfort  
Time TempWeatherWind HumidityBarometerVisibility
2:50 PM
Oct 25
70 °FSunny.14 mph33%29.83 "Hg10 mi
1:47 PM73 °FSunny.12 mph29%29.86 "Hg10 mi
12:50 PM72 °FSunny.14 mph31%29.91 "Hg10 mi
11:55 AM70 °FSunny.9 mph33%29.94 "Hg10 mi
10:45 AM66 °FSunny.12 mph40%29.97 "Hg10 mi
9:55 AM66 °FSunny.5 mph43%29.99 "Hg10 mi
8:45 AM54 °FSunny.No wind72%29.99 "Hg10 mi
7:45 AM48 °FClear.No wind71%29.98 "Hg10 mi
6:45 AM52 °FClear.5 mph62%29.98 "Hg10 mi
6:15 AM54 °FRain. Clear.5 mph54%29.98 "Hg10 mi
5:55 AM52 °FLight snow. Clear.7 mph62%29.98 "Hg10 mi
5:15 AM46 °FLight snow. Clear.No wind76%29.98 "Hg10 mi
4:55 AM50 °FLight snow. Passing clouds.No wind67%29.98 "Hg10 mi
4:35 AM45 °FLight snow. Clear.5 mph87%29.98 "Hg7 mi
4:15 AM50 °FLight snow. Clear.No wind67%29.98 "Hg7 mi
3:55 AM46 °FLight snow. Clear.No wind71%29.98 "Hg7 mi
3:35 AM46 °FLight snow. Clear.3 mph82%29.99 "Hg10 mi
3:15 AM45 °FLight snow. Clear.3 mph87%29.99 "Hg7 mi
2:55 AM45 °FLight snow. Clear.No wind81%29.99 "Hg7 mi
2:15 AM46 °FClear.3 mph76%29.99 "Hg10 mi
1:55 AM46 °FClear.No wind82%29.99 "Hg10 mi
1:35 AM46 °FClear.No wind82%29.99 "Hg10 mi
1:15 AM50 °FClear.No wind71%29.99 "Hg10 mi
12:55 AM52 °FClear.No wind58%29.99 "Hg10 mi
12:35 AM54 °FClear.No wind54%29.99 "Hg10 mi
12:15 AM50 °FClear.No wind67%29.99 "Hg10 mi
11:55 PM
Oct 24
54 °FClear.No wind54%29.99 "Hg10 mi
11:15 PM54 °FClear.No wind54%29.99 "Hg10 mi
10:55 PM57 °FClear.No wind44%29.99 "Hg10 mi
10:15 PM55 °FClear.No wind47%29.99 "Hg10 mi
9:55 PM59 °FClear.5 mph39%29.98 "Hg10 mi
9:35 PM59 °FClear.3 mph42%29.98 "Hg10 mi
9:15 PM61 °FClear.6 mph34%29.98 "Hg10 mi
8:55 PM59 °FClear.No wind39%29.98 "Hg10 mi
8:35 PM61 °FClear.No wind34%29.97 "Hg10 mi
7:50 PM64 °FClear.3 mph28%29.97 "Hg10 mi
6:50 PM64 °FSunny.10 mph28%29.95 "Hg10 mi
5:55 PM70 °FSunny.10 mph20%29.93 "Hg10 mi
Weather by CustomWeather, © 2014

See weather overviewHow to use our weather pages